Погода в Великом Хуторе

Украина / Черкасская область     49°51′42″N   32°06′19″E
темп.,
°C
ветер,
м/с
пор.,
м/с
влажн.,
%
обл.,
%
осадки,
мм/ч
давл.,
гПа
погр.,
м
28 сентября, вт
вт2800:00+8ссв34915 0.0 102378
03:00+7ссв34945 0.0 102472
06:00+6ссв36955 0.0 1024118
09:00+9ссв46785 0.0 1025348
12:00+13св455753 0.0 10251324
15:00+14ссв555185 0.2 10251519
18:00+13ссв475894 0.0 1026414
21:00+9св487942 0.1 1027234
29 сентября, ср
ср2900:00+8св378878 0.0 1029177
03:00+9всв4878100 0.1 1029379
06:00+6всв49886 0.0 1030221
09:00+9всв58725 0.0 1031501
12:00+12в5652100 0.0 10321525
15:00+12в4550100 0.0 10311562
18:00+12всв4449100 0.0 1031169
21:00+8св36637 0.0 1032112
30 сентября, чт
чт3000:00+6всв34701 0.0 103365
03:00+5всв346619 0.0 103358
06:00+4в34685 0.0 103346
09:00+8в35535 0.0 1034237
12:00+13вюв343835 0.0 10341089
15:00+15вюв333342 0.0 10331391
18:00+12юв224614 0.0 103216
21:00+8в22545 0.0 103316
1 октября, пт
пт100:00+7в33575 0.0 103436
03:00+6в33585 0.0 103428
06:00+5в33595 0.0 103432
09:00+9вюв34485 0.0 1035212
12:00+14юв44370 0.0 10341042
15:00+15ююв34335 0.0 10331318
18:00+12ююв33475 0.0 103243
21:00+9вюв22525 0.0 103320
2 октября, сб
сб200:00+8вюв335511 0.0 103332
03:00+7вюв336057 0.0 103343
06:00+7юв336838 0.0 103238
09:00+10юв465545 0.0 1032242
12:00+15юв563767 0.0 10311123
15:00+16юв563357 0.0 10301150
18:00+12ююв364598 0.0 1029126
21:00+10вюв355027 0.0 102974